Tracking 34348 objects as of 9-Jun-2026
HD Live streaming from Space Station
objects crossing your sky now

DELTA 1 DEB

Track DELTA 1 DEB now!
10-day predictions


NORAD ID: 7162
Int'l Code: 1973-086EA
Perigee: 1,259.9 km
Apogee: 1,390.8 km
Inclination: 101.5 °
Period: 112.0 minutes
Semi major axis: 7696 km
RCS: 0.0651 m2 (small)
Launch date: November 6, 1973
Source: United States (US)
Launch site: AIR FORCE WESTERN TEST RANGE (AFWTR)

Note: This is SATELLITE DEBRIS
Your satellite tracking list
Your tracking list is empty




NASA's NSSDC Master Catalog

Two Line Element Set (TLE):
1  7162U 73086EA  26160.19347512  .00000533  00000-0  23168-2 0  9990
2  7162 101.5099  20.3958 0085037 142.0740 339.0317 12.85800873427844
Source of the keplerian elements: AFSPC